Location: Chagrin Falls Park
(41.4139°N, 81.3865°W)
Time: 18:09:05
(UTC+00:00)

X-37B - Pass Details

Date: 02 August 2021
Orbit: 381 x 393 km, 45.0° (Epoch: 29 August)

Event Time Altitude Azimuth Distance (km) Brightness Sun altitude
Exits shadow 08:44:58 38° 190° (S) 593 1.1 -16.0°
Maximum altitude 08:45:37 46° 152° (SSE) 522 1.1 -15.9°
Drops below altitude 10° 08:48:39 10° 78° (ENE) 1,397 4.3 -15.4°
Sets 08:50:46 0° 72° (ENE) 2,253 5.8 -15.1°
